STARLINK-1343 (45584 NORAD) Tracking and Keplerian Element Data

This shows tracking and keplerian element data for the satellite.

Feedback or suggestion? Click here.




ElementValue
Catalog45584
NameSTARLINK-1343
Epoch Orbit177
Epoch Day193.91667824
Epoch Year2020
RAAN5.8463
Inclination52.9985
Eccentricity0.0001854
Argument of Perigee30.7069
Mean Anonmoly64.6089
Mean Motion15.62793245
Decay Rate-0.00049416
L11 45584U 20025BF 20193.91667824 -.00049416 00000-0 -53622-3 0 9990
L22 45584 52.9985 5.8463 0001854 30.7069 64.6089 15.62793245 1777

Live tracking and technical data element details for STARLINK-1343 (NORAD 45584). STARLINK-1343 can be tracked NOW for your location showing map with azimuth and elevation plus other details from your city location.

Track the satellite on the map from your city or location and see movement details for azimuth, elevation, latitude, longitude, range, height, and movement on the map or in text.







IsCatalogInMostPopularTable: catalog: 45584, numindb: 18
Update: records affected: 1



GetName: 45584 STARLINK-1343

Hit Count: updated at: Mon, 13 Jul 2020 06:11:35 GMT